Zurück zum Katalog

SL-8 R/B

AktivLEO
NORAD 11112·ROCKET BODY·🇷🇺 Russia

Gestartet Nov 16, 1978 von Plesetsk Cosmodrome

Loading…

Nächste Überflüge (nächste 24 Stunden)

TLE

AktuellSource: Space-Track

Epoche: Sep 14, 2026, 10:26 UTC

1 11112U 78105B   26257.43515037  .00000128  00000-0  49974-4 0  9995
2 11112  74.0283  69.5169 0032273 125.9497 234.4659 14.38848733504676

Verfolge SL-8 R/B in Echtzeit mit AllMySat

Download on the App Store